Regional Weather Roundup
Issued by NWS Albany, NY

Home | Current Version | Previous Version | Text Only | Print | Product List | Glossary On
Versions: 1 2 3 4 5 6 7 8 9 10 11 12 13 14 15 16 17 18 19 20 21 22 23 24 25 26 27 28
000
ASUS41 KALY 240210
RWRALY

NEW YORK STATE HOURLY WEATHER ROUNDUP
NATIONAL WEATHER SERVICE ALBANY NY
1000 PM EDT WED AUG 23 2017

NOTE: "FAIR" INDICATES FEW OR NO CLOUDS BELOW 12,000 FEET WITH NO
SIGNIFICANT WEATHER AND/OR NO OBSTRUCTIONS TO VISIBILITY.

NYZ032-033-038>043-046>054-057>066-NYZ062>081-082-084-240300-
EAST


CITY           SKY/WX    TMP DP  RH WIND       PRES   REMARKS
ALBANY         FAIR      63  55  75 CALM      29.87R
GLENS FALLS    FAIR      56  53  90 CALM      29.86R
POUGHKEEPSIE   FAIR      62  57  83 CALM      29.86S
NEWBURGH       CLEAR     63  59  88 VRB5      29.89S
MONTGOMERY     FAIR      60  57  89 CALM      29.88S
WHITE PLAINS   FAIR      65  57  75 NW3       29.87S
ISLIP          FAIR      69  59  70 NW5       29.86S
NEW YORK CITY  FAIR      76  54  46 NW7       29.86S
CENTRAL PARK   FAIR      75  51  43 CALM      29.89F
$$

NYZ005>009-017-018-044>046-055-056-240300-
CENTRAL


CITY           SKY/WX    TMP DP  RH WIND       PRES   REMARKS
FULTON         FAIR      61  56  83 SW6       29.89R
SYRACUSE       CLOUDY    62  58  86 W8        29.89R
ROME           LGT RAIN  64  57  78 W7        29.89R
ELMIRA         FAIR      59  56  89 CALM      29.92R
BINGHAMTON     FAIR      60  53  77 N6        29.93R
MONTICELLO     FAIR      58  54  86 CALM      29.93R
$$

NYZ026>034-041>043-087-240300-
NORTH


CITY           SKY/WX    TMP DP  RH WIND       PRES   REMARKS
WATERTOWN      CLOUDY    65  57  75 W7        29.86R
FORT DRUM      NOT AVBL
OGDENSBURG     FAIR      58  56  92 W5        29.84R
MASSENA        MOCLDY    59  57  93 SW6       29.84R
SARANAC LAKE   CLOUDY    54  53  97 SW6       29.86F
PLATTSBURGH    CLOUDY    63  55  75 VRB5      29.81S
$$

NYZ001>004-010>016-019>021-085-240300-
WEST


CITY           SKY/WX    TMP DP  RH WIND       PRES   REMARKS
NIAGARA FALLS  FAIR      62  50  64 NW8       29.93R
BUFFALO        FAIR      64  50  60 NW9       29.93R
DUNKIRK        MOCLDY    66  53  63 NW9       29.94R
JAMESTOWN      FAIR      59  54  82 W6        29.97S
WELLSVILLE     CLOUDY    60  51  72 W7        29.98R
ROCHESTER      FAIR      61  59  93 SW5       29.91R
PENN YAN       CLOUDY    66  53  63 W6        29.93R
$$

             KEY
       WCI = WIND CHILL INDEX
       VSB = VISIBILITY
       HX  = HEAT INDEX
$$




USA.gov is the U.S. government's official web portal to all federal, state and local government web resources and services.